When you browse on this site, cookies collect data to enhance your experience and personalize the content and advertising you see.
Visit our Privacy Policy to learn more. By continuing to use the site, you agree to this use of cookies and data.

Hourly Weather Bobo-Dioulasso

Today, 22 September, Tuesday

Time Temperature Precipitation Wind Pressure Humidity
00:00 +25°C° 0 mm 1 mps 724 mmHg 91%
01:00 +25°C° 0.6 mm 1 mps 723 mmHg 93%
02:00 +24°C° 0.6 mm 2 mps 723 mmHg 94%
03:00 +24°C° 0.6 mm 2 mps 722 mmHg 96%
04:00 +24°C° 0 mm 2 mps 722 mmHg 97%
05:00 +24°C° 0 mm 2 mps 723 mmHg 97%
06:00 +23°C° 0 mm 2 mps 723 mmHg 97%
07:00 +25°C° 0 mm 2 mps 723 mmHg 94%
08:00 +26°C° 0 mm 2 mps 724 mmHg 90%
09:00 +27°C° 0 mm 2 mps 724 mmHg 86%
10:00 +29°C° 0.9 mm 2 mps 724 mmHg 79%
11:00 +30°C° 0.9 mm 2 mps 724 mmHg 71%
12:00 +31°C° 0.9 mm 1 mps 724 mmHg 64%
13:00 +32°C° 0 mm 1 mps 724 mmHg 59%
14:00 +33°C° 0 mm 1 mps 723 mmHg 55%
15:00 +31°C° 0 mm 0 mps 722 mmHg 51%
16:00 +30°C° 0 mm 0 mps 722 mmHg 57%
17:00 +28°C° 0 mm 0 mps 722 mmHg 63%
18:00 +27°C° 0 mm 0 mps 721 mmHg 69%
19:00 +26°C° 0 mm 0 mps 722 mmHg 70%
20:00 +25°C° 0 mm 0 mps 723 mmHg 71%
21:00 +27°C° 0 mm 1 mps 723 mmHg 73%
22:00 +26°C° 0.1 mm 1 mps 723 mmHg 74%
23:00 +26°C° 0.1 mm 1 mps 724 mmHg 75%

Tomorrow, 23 September, Wednesday

Time Temperature Precipitation Wind Pressure Humidity
00:00 +26°C° 0.1 mm 1 mps 724 mmHg 77%
01:00 +25°C° 0.2 mm 1 mps 723 mmHg 79%
02:00 +25°C° 0.2 mm 1 mps 723 mmHg 82%
03:00 +25°C° 0.2 mm 1 mps 722 mmHg 84%
04:00 +24°C° 0.1 mm 1 mps 722 mmHg 86%
05:00 +22°C° 0.1 mm 0 mps 722 mmHg 88%
06:00 +22°C° 0.1 mm 0 mps 723 mmHg 90%
07:00 +23°C° 0 mm 0 mps 723 mmHg 86%
08:00 +26°C° 0 mm 1 mps 724 mmHg 82%
09:00 +28°C° 0 mm 1 mps 724 mmHg 78%
10:00 +28°C° 1.9 mm 1 mps 724 mmHg 75%
11:00 +29°C° 1.9 mm 1 mps 723 mmHg 72%
12:00 +30°C° 1.9 mm 1 mps 723 mmHg 68%
13:00 +30°C° 0.7 mm 1 mps 723 mmHg 69%
14:00 +30°C° 0.7 mm 1 mps 722 mmHg 70%
15:00 +30°C° 0.7 mm 1 mps 722 mmHg 71%
16:00 +29°C° 0 mm 1 mps 722 mmHg 74%
17:00 +28°C° 0 mm 1 mps 722 mmHg 77%
18:00 +28°C° 0 mm 1 mps 722 mmHg 80%
19:00 +27°C° 0 mm 1 mps 722 mmHg 82%
20:00 +26°C° 0 mm 1 mps 723 mmHg 85%
21:00 +26°C° 0 mm 1 mps 723 mmHg 87%
22:00 +25°C° 0 mm 1 mps 723 mmHg 87%
23:00 +25°C° 0 mm 1 mps 723 mmHg 88%

Day after tomorrow, 24 September, Thursday

Time Temperature Precipitation Wind Pressure Humidity
00:00 +25°C° 0 mm 1 mps 724 mmHg 88%
01:00 +25°C° 0 mm 1 mps 723 mmHg 87%
02:00 +25°C° 0 mm 1 mps 723 mmHg 87%
03:00 +25°C° 0 mm 2 mps 723 mmHg 86%
04:00 +24°C° 0 mm 2 mps 723 mmHg 85%
05:00 +24°C° 0 mm 2 mps 723 mmHg 85%
06:00 +24°C° 0 mm 2 mps 723 mmHg 84%
07:00 +26°C° 0 mm 2 mps 724 mmHg 83%
08:00 +27°C° 0 mm 3 mps 724 mmHg 81%
09:00 +28°C° 0 mm 3 mps 725 mmHg 79%
10:00 +29°C° 0 mm 3 mps 724 mmHg 74%
11:00 +30°C° 0 mm 3 mps 724 mmHg 69%
12:00 +33°C° 0 mm 3 mps 724 mmHg 64%
13:00 +32°C° 0 mm 2 mps 723 mmHg 62%
14:00 +32°C° 0 mm 2 mps 723 mmHg 60%
15:00 +33°C° 0 mm 1 mps 722 mmHg 57%
16:00 +32°C° 0 mm 1 mps 722 mmHg 62%
17:00 +30°C° 0 mm 1 mps 722 mmHg 67%
18:00 +29°C° 0 mm 1 mps 722 mmHg 72%
19:00 +29°C° 0 mm 1 mps 722 mmHg 73%
20:00 +28°C° 0 mm 1 mps 723 mmHg 75%
21:00 +27°C° 0 mm 1 mps 723 mmHg 76%
22:00 +27°C° 0.2 mm 1 mps 723 mmHg 78%
23:00 +27°C° 0.2 mm 1 mps 723 mmHg 80%

25 September, Friday

Time Temperature Precipitation Wind Pressure Humidity
00:00 +26°C° 0.2 mm 1 mps 723 mmHg 83%
01:00 +26°C° 0 mm 2 mps 723 mmHg 85%
02:00 +25°C° 0 mm 2 mps 723 mmHg 87%
03:00 +25°C° 0 mm 2 mps 723 mmHg 89%
04:00 +25°C° 0 mm 2 mps 723 mmHg 90%
05:00 +25°C° 0 mm 2 mps 723 mmHg 91%
06:00 +24°C° 0 mm 2 mps 723 mmHg 92%
07:00 +26°C° 0 mm 2 mps 724 mmHg 87%
08:00 +27°C° 0 mm 2 mps 724 mmHg 82%
09:00 +29°C° 0 mm 3 mps 725 mmHg 77%
10:00 +30°C° 0 mm 2 mps 724 mmHg 70%
11:00 +32°C° 0 mm 2 mps 724 mmHg 64%
12:00 +34°C° 0 mm 2 mps 724 mmHg 58%
13:00 +33°C° 0.6 mm 1 mps 723 mmHg 60%
14:00 +33°C° 0.6 mm 1 mps 723 mmHg 61%
15:00 +30°C° 0.6 mm 0 mps 722 mmHg 63%
16:00 +29°C° 0.7 mm 0 mps 722 mmHg 68%
17:00 +28°C° 0.7 mm 0 mps 722 mmHg 72%
18:00 +29°C° 0.7 mm 1 mps 722 mmHg 77%
19:00 +28°C° 0.9 mm 1 mps 722 mmHg 79%
20:00 +27°C° 0.9 mm 2 mps 723 mmHg 81%
21:00 +26°C° 0.9 mm 2 mps 724 mmHg 83%
22:00 +26°C° 2.1 mm 2 mps 723 mmHg 85%
23:00 +25°C° 2.1 mm 3 mps 723 mmHg 86%

26 September, Saturday

Time Temperature Precipitation Wind Pressure Humidity
00:00 +24°C° 2.1 mm 3 mps 723 mmHg 88%
01:00 +24°C° 0 mm 2 mps 722 mmHg 88%
02:00 +24°C° 0 mm 2 mps 722 mmHg 87%
03:00 +24°C° 0 mm 2 mps 721 mmHg 87%
04:00 +24°C° 0 mm 2 mps 721 mmHg 86%
05:00 +24°C° 0 mm 2 mps 721 mmHg 85%
06:00 +24°C° 0 mm 2 mps 721 mmHg 84%
07:00 +25°C° 0 mm 3 mps 721 mmHg 81%
08:00 +26°C° 0 mm 3 mps 722 mmHg 78%
09:00 +28°C° 0 mm 4 mps 723 mmHg 76%
10:00 +29°C° 0 mm 4 mps 723 mmHg 72%
11:00 +30°C° 0 mm 4 mps 723 mmHg 68%
12:00 +33°C° 0 mm 4 mps 723 mmHg 64%
13:00 +33°C° 0.2 mm 3 mps 722 mmHg 63%
14:00 +33°C° 0.2 mm 3 mps 722 mmHg 62%
15:00 +33°C° 0.2 mm 3 mps 721 mmHg 61%
16:00 +31°C° 0.2 mm 2 mps 721 mmHg 66%
17:00 +29°C° 0.2 mm 2 mps 721 mmHg 72%
18:00 +28°C° 0.2 mm 1 mps 721 mmHg 77%
19:00 +27°C° 0.1 mm 1 mps 721 mmHg 79%
20:00 +27°C° 0.1 mm 1 mps 722 mmHg 81%
21:00 +26°C° 0.1 mm 1 mps 722 mmHg 83%
22:00 +25°C° 0.1 mm 1 mps 722 mmHg 85%
23:00 +25°C° 0.1 mm 1 mps 722 mmHg 87%

27 September, Sunday

Time Temperature Precipitation Wind Pressure Humidity
00:00 +25°C° 0.1 mm 2 mps 722 mmHg 89%
01:00 +25°C° 0 mm 2 mps 722 mmHg 90%
02:00 +24°C° 0 mm 2 mps 722 mmHg 92%
03:00 +24°C° 0 mm 2 mps 721 mmHg 93%
04:00 +24°C° 0 mm 2 mps 721 mmHg 93%
05:00 +24°C° 0 mm 2 mps 721 mmHg 93%
06:00 +24°C° 0 mm 2 mps 721 mmHg 94%
07:00 +25°C° 0 mm 3 mps 722 mmHg 89%
08:00 +26°C° 0 mm 3 mps 722 mmHg 84%
09:00 +27°C° 0 mm 3 mps 723 mmHg 79%
10:00 +29°C° 0 mm 3 mps 723 mmHg 73%
11:00 +30°C° 0 mm 3 mps 722 mmHg 67%
12:00 +33°C° 0 mm 3 mps 722 mmHg 62%
13:00 +33°C° 0 mm 3 mps 722 mmHg 60%
14:00 +33°C° 0 mm 3 mps 721 mmHg 59%
15:00 +34°C° 0 mm 3 mps 720 mmHg 57%
16:00 +31°C° 0 mm 2 mps 720 mmHg 63%
17:00 +30°C° 0 mm 2 mps 720 mmHg 69%
18:00 +28°C° 0 mm 1 mps 720 mmHg 75%
19:00 +28°C° 0 mm 1 mps 721 mmHg 76%
20:00 +27°C° 0 mm 1 mps 721 mmHg 77%
21:00 +27°C° 0 mm 1 mps 722 mmHg 77%
22:00 +26°C° 0 mm 1 mps 722 mmHg 78%
23:00 +26°C° 0 mm 1 mps 722 mmHg 78%
Show more